Weather History for Bolton Field, OH

Change the Weather History Date:

Friday, January 4, 2013

  Actual Average Record
Temperature  
Mean Temperature 25 °F -  
Max Temperature 31 °F 37 °F 66 °F (1997)
Min Temperature 19 °F 25 °F 3 °F (1999)
Degree Days  
Heating Degree Days 40    
Moisture  
Dew Point 19 °F    
Average Humidity 75    
Maximum Humidity 80    
Minimum Humidity 64    
Precipitation  
Precipitation 0.00 in - - ()
Sea Level Pressure  
Sea Level Pressure 30.27 in    
Wind  
Wind Speed 9 mph (SW)    
Max Wind Speed 17 mph    
Max Gust Speed 23 mph    
Visibility 10 miles    
Events      
Averages and records for this station are not official NWS values.
T = Trace of Precipitation, MM = Missing Value Source: NWS Daily Summary

Daily Weather History Graph

Daily Weather History Graph

Search for Another Location

Airport:

Trip Planner

Search our weather history database for the weather conditions in past years. The results will help you decide how hot, cold, wet, or windy it might be!

Date:

Astronomy

Jan. 04, 2013 Rise Set
Actual Time 7:54 AM EST 5:21 PM EST
Civil Twilight 7:24 AM EST 5:51 PM EST
Nautical Twilight 6:50 AM EST 6:25 PM EST
Astronomical Twilight 6:17 AM EST 6:58 PM EST
Moon No Moon Rise 11:37 AM EST (1/4)
Length of Visible Light 10h 27m
Length of Day
9h 26m
Waning Gibbous, 55% of the Moon is Illuminated
Jan 4
Waning Gibbous
Jan 4
Last Quarter
Jan 11
New
Jan 18
First Quarter
Jan 26
Full

Hourly Weather History & Observations

Time (EST) Temp. Windchill Dew Point Humidity Pressure Visibility Wind Dir Wind Speed Gust Speed Precip Events Conditions
12:15 AM 28.9 °F 21.9 °F 22.3 °F 76% 30.26 in 10.0 mi WSW 6.9 mph - N/A   Overcast
12:35 AM 28.9 °F 20.4 °F 22.5 °F 77% 30.26 in 10.0 mi WSW 9.2 mph - N/A   Overcast
12:55 AM 29.3 °F 21.5 °F 21.7 °F 73% 30.25 in 10.0 mi West 8.1 mph - N/A   Overcast
1:15 AM 28.9 °F 22.8 °F 22.5 °F 77% 30.25 in 10.0 mi WSW 5.8 mph - N/A   Overcast
1:35 AM 28.4 °F 22.2 °F 22.8 °F 80% 30.25 in 10.0 mi WSW 5.8 mph - N/A   Overcast
1:55 AM 28.4 °F 21.2 °F 22.6 °F 79% 30.25 in 10.0 mi WSW 6.9 mph - N/A   Overcast
2:35 AM 28.9 °F 20.4 °F 22.1 °F 76% 30.25 in 10.0 mi SW 9.2 mph - N/A   Overcast
2:55 AM 28.9 °F 19.8 °F 22.5 °F 77% 30.26 in 10.0 mi SW 10.4 mph - N/A   Overcast
3:15 AM 28.9 °F 20.4 °F 22.8 °F 78% 30.26 in 10.0 mi SW 9.2 mph - N/A   Overcast
3:35 AM 29.1 °F 19.4 °F 22.8 °F 77% 30.26 in 10.0 mi WSW 11.5 mph - N/A   Overcast
3:55 AM 29.1 °F 18.9 °F 23.0 °F 78% 30.25 in 10.0 mi SW 12.7 mph 16.1 mph N/A   Overcast
4:15 AM 29.1 °F 20.6 °F 23.4 °F 79% 30.25 in 10.0 mi SW 9.2 mph - N/A   Overcast
6:55 AM 25.9 °F 14.3 °F 19.0 °F 75% 30.25 in 10.0 mi WSW 13.8 mph - N/A   Scattered Clouds
7:15 AM 25.2 °F 13.3 °F 17.8 °F 74% 30.26 in 10.0 mi WSW 13.8 mph 19.6 mph N/A   Clear
7:22 AM 24.8 °F 12.4 °F 17.6 °F 74% 30.26 in 10.0 mi WSW 15.0 mph - N/A   Clear
7:50 AM 23.0 °F 11.7 °F 17.6 °F 80% 30.27 in 10.0 mi WSW 11.5 mph 18.4 mph N/A   Clear
8:51 AM 23.0 °F 13.9 °F 15.8 °F 74% 30.29 in 10.0 mi WSW 8.1 mph - N/A   Clear
9:50 AM 24.8 °F 15.3 °F 17.6 °F 74% 30.30 in 10.0 mi SW 9.2 mph - N/A   Clear
10:52 AM 26.6 °F 15.7 °F 19.4 °F 74% 30.31 in 10.0 mi WSW 12.7 mph - N/A   Scattered Clouds
11:58 AM 28.4 °F 16.2 °F 21.2 °F 74% 30.29 in 10.0 mi WSW 17.3 mph 23.0 mph N/A   Scattered Clouds
12:50 PM 30.2 °F 18.9 °F 21.2 °F 69% 30.26 in 10.0 mi SW 16.1 mph 20.7 mph N/A   Clear
1:55 PM 30.2 °F 18.5 °F 21.2 °F 69% 30.24 in 10.0 mi SW 17.3 mph 23.0 mph N/A   Clear
2:45 PM 30.2 °F 18.9 °F 19.4 °F 64% 30.24 in 10.0 mi WSW 16.1 mph 23.0 mph N/A   Clear
5:50 PM 26.6 °F 16.8 °F 17.6 °F 69% 30.26 in 10.0 mi WSW 10.4 mph - N/A   Clear
8:15 PM 23.5 °F 13.7 °F 15.8 °F 72% 30.28 in 10.0 mi SW 9.2 mph - N/A   Clear
8:35 PM 24.3 °F 15.4 °F 16.3 °F 72% 30.28 in 10.0 mi SW 8.1 mph - N/A   Clear
8:55 PM 23.7 °F 13.3 °F 16.0 °F 72% 30.28 in 10.0 mi SW 10.4 mph - N/A   Clear
9:15 PM 21.2 °F 10.9 °F 14.4 °F 75% 30.28 in 10.0 mi SSW 9.2 mph - N/A   Clear
9:35 PM 20.8 °F 12.1 °F 14.4 °F 76% 30.28 in 10.0 mi SSW 6.9 mph - N/A   Clear
9:55 PM 21.2 °F - 15.1 °F 77% 30.29 in 10.0 mi North - - N/A   Clear
10:35 PM 20.8 °F 13.2 °F 14.4 °F 76% 30.29 in 10.0 mi SW 5.8 mph - N/A   Clear
10:55 PM 21.7 °F 12.3 °F 14.9 °F 75% 30.29 in 10.0 mi SW 8.1 mph - N/A   Clear
11:15 PM 21.0 °F 13.4 °F 14.5 °F 76% 30.30 in 10.0 mi SW 5.8 mph - N/A   Clear
11:35 PM 21.0 °F 12.4 °F 14.9 °F 77% 30.30 in 10.0 mi SW 6.9 mph - N/A   Clear
11:55 PM 19.6 °F 11.7 °F 14.4 °F 80% 30.31 in 10.0 mi SW 5.8 mph - N/A   Clear